• în România
  • Lista ţărilor
  • Pe 7 zile
  • Temperatura apei
  • Hartă satelitară
  • Meteo pe hartă
  • Widget-uri
  • user-avatar
    Intrare

    Meteo pe oră la Shusha

    Astăzi, 21 Noiembrie, Marţi

    Timp Temperatura Precipitaţii Vânt Presiune Umiditate
    00:00 +8°C° 0 mm 2 m/s 657 mmHg 49%
    01:00 +8°C° 0 mm 2 m/s 656 mmHg 50%
    02:00 +8°C° 0 mm 2 m/s 656 mmHg 50%
    03:00 +8°C° 0 mm 2 m/s 656 mmHg 53%
    04:00 +8°C° 0 mm 2 m/s 655 mmHg 53%
    05:00 +8°C° 0 mm 2 m/s 655 mmHg 53%
    06:00 +8°C° 0 mm 2 m/s 655 mmHg 53%
    07:00 +10°C° 0 mm 1 m/s 655 mmHg 50%
    08:00 +11°C° 0 mm 1 m/s 656 mmHg 47%
    09:00 +12°C° 0 mm 1 m/s 656 mmHg 44%
    10:00 +13°C° 0 mm 2 m/s 656 mmHg 41%
    11:00 +14°C° 0 mm 2 m/s 655 mmHg 39%
    12:00 +15°C° 0 mm 2 m/s 655 mmHg 36%
    13:00 +15°C° 0 mm 2 m/s 655 mmHg 37%
    14:00 +15°C° 0 mm 2 m/s 654 mmHg 39%
    15:00 +14°C° 0 mm 2 m/s 654 mmHg 40%
    16:00 +13°C° 0 mm 2 m/s 653 mmHg 44%
    17:00 +12°C° 0 mm 1 m/s 653 mmHg 48%
    18:00 +9°C° 0 mm 0 m/s 653 mmHg 52%
    19:00 +10°C° 0 mm 1 m/s 652 mmHg 53%
    20:00 +10°C° 0 mm 1 m/s 652 mmHg 54%
    21:00 +9°C° 0 mm 1 m/s 652 mmHg 55%
    22:00 +9°C° 0 mm 1 m/s 651 mmHg 55%
    23:00 +9°C° 0 mm 1 m/s 651 mmHg 56%

    Mâine, 22 Noiembrie, Miercuri

    Timp Temperatura Precipitaţii Vânt Presiune Umiditate
    00:00 +8°C° 0 mm 2 m/s 651 mmHg 56%
    01:00 +8°C° 0 mm 2 m/s 651 mmHg 57%
    02:00 +7°C° 0 mm 2 m/s 651 mmHg 57%
    03:00 +7°C° 0 mm 2 m/s 650 mmHg 57%
    04:00 +7°C° 0 mm 2 m/s 650 mmHg 57%
    05:00 +7°C° 0 mm 2 m/s 650 mmHg 57%
    06:00 +7°C° 0 mm 1 m/s 650 mmHg 57%
    07:00 +8°C° 0 mm 1 m/s 651 mmHg 54%
    08:00 +9°C° 0 mm 1 m/s 651 mmHg 52%
    09:00 +10°C° 0 mm 1 m/s 651 mmHg 50%
    10:00 +10°C° 0 mm 2 m/s 651 mmHg 49%
    11:00 +10°C° 0 mm 3 m/s 651 mmHg 49%
    12:00 +10°C° 0 mm 4 m/s 651 mmHg 49%
    13:00 +9°C° 0,1 mm 3 m/s 651 mmHg 52%
    14:00 +8°C° 0,1 mm 3 m/s 651 mmHg 56%
    15:00 +7°C° 0,1 mm 3 m/s 651 mmHg 60%
    16:00 +5°C° 0,1 mm 3 m/s 652 mmHg 65%
    17:00 +5°C° 0,1 mm 2 m/s 652 mmHg 69%
    18:00 +4°C° 0,1 mm 2 m/s 652 mmHg 74%
    19:00 +4°C° 0,2 mm 2 m/s 652 mmHg 74%
    20:00 +4°C° 0,2 mm 2 m/s 653 mmHg 74%
    21:00 +2°C° 0,2 mm 3 m/s 653 mmHg 74%
    22:00 +2°C° 0,2 mm 3 m/s 653 mmHg 74%
    23:00 +1°C° 0,2 mm 3 m/s 653 mmHg 73%

    Poimâine, 23 Noiembrie, Joi

    Timp Temperatura Precipitaţii Vânt Presiune Umiditate
    00:00 +1°C° 0,2 mm 3 m/s 654 mmHg 73%
    01:00 +2°C° 0,3 mm 2 m/s 654 mmHg 73%
    02:00 +1°C° 0,3 mm 2 m/s 654 mmHg 73%
    03:00 +1°C° 0,3 mm 2 m/s 654 mmHg 73%
    04:00 +1°C° 0,4 mm 2 m/s 654 mmHg 73%
    05:00 +1°C° 0,4 mm 2 m/s 654 mmHg 74%
    06:00 +1°C° 0,4 mm 1 m/s 655 mmHg 74%
    07:00 +1°C° 0,3 mm 1 m/s 655 mmHg 73%
    08:00 +1°C° 0,3 mm 2 m/s 656 mmHg 72%
    09:00 +1°C° 0,3 mm 2 m/s 656 mmHg 70%
    10:00 +1°C° 0 mm 2 m/s 656 mmHg 65%
    11:00 +2°C° 0 mm 2 m/s 656 mmHg 60%
    12:00 +3°C° 0 mm 2 m/s 656 mmHg 55%
    13:00 +3°C° 0 mm 2 m/s 656 mmHg 54%
    14:00 +3°C° 0 mm 2 m/s 656 mmHg 53%
    15:00 +4°C° 0 mm 2 m/s 656 mmHg 52%
    16:00 +2°C° 0 mm 2 m/s 656 mmHg 58%
    17:00 +2°C° 0 mm 1 m/s 656 mmHg 64%
    18:00 +1°C° 0 mm 1 m/s 656 mmHg 70%
    19:00 +1°C° 0 mm 1 m/s 656 mmHg 70%
    20:00 0°C° 0 mm 1 m/s 656 mmHg 71%
    21:00 0°C° 0 mm 1 m/s 656 mmHg 71%
    22:00 0°C° 0 mm 1 m/s 656 mmHg 72%
    23:00 0°C° 0 mm 1 m/s 656 mmHg 72%

    24 Noiembrie, Vineri

    Timp Temperatura Precipitaţii Vânt Presiune Umiditate
    00:00 0°C° 0 mm 1 m/s 656 mmHg 73%
    01:00 0°C° 0 mm 1 m/s 656 mmHg 73%
    02:00 0°C° 0 mm 1 m/s 656 mmHg 74%
    03:00 -2°C° 0 mm 2 m/s 656 mmHg 74%
    04:00 -2°C° 0,1 mm 2 m/s 657 mmHg 75%
    05:00 0°C° 0,1 mm 1 m/s 657 mmHg 77%
    06:00 0°C° 0,1 mm 1 m/s 657 mmHg 78%
    07:00 0°C° 0,2 mm 1 m/s 658 mmHg 76%
    08:00 -2°C° 0,2 mm 2 m/s 658 mmHg 73%
    09:00 -1°C° 0,2 mm 2 m/s 659 mmHg 71%
    10:00 -1°C° 0,1 mm 2 m/s 658 mmHg 69%
    11:00 +1°C° 0,1 mm 2 m/s 658 mmHg 66%
    12:00 +1°C° 0,1 mm 2 m/s 658 mmHg 64%
    13:00 +1°C° 0,1 mm 2 m/s 658 mmHg 64%
    14:00 +1°C° 0,1 mm 2 m/s 658 mmHg 64%
    15:00 +1°C° 0,1 mm 2 m/s 658 mmHg 63%
    16:00 -1°C° 0 mm 2 m/s 658 mmHg 66%
    17:00 +1°C° 0 mm 1 m/s 659 mmHg 69%
    18:00 0°C° 0 mm 1 m/s 659 mmHg 72%
    19:00 -1°C° 0 mm 1 m/s 659 mmHg 72%
    20:00 -1°C° 0 mm 1 m/s 659 mmHg 72%
    21:00 -1°C° 0 mm 1 m/s 660 mmHg 73%
    22:00 -1°C° 0 mm 1 m/s 660 mmHg 71%
    23:00 -2°C° 0 mm 1 m/s 659 mmHg 70%

    25 Noiembrie, Sâmbătă

    Timp Temperatura Precipitaţii Vânt Presiune Umiditate
    00:00 -2°C° 0 mm 1 m/s 659 mmHg 69%
    01:00 -2°C° 0 mm 1 m/s 660 mmHg 67%
    02:00 -4°C° 0 mm 2 m/s 660 mmHg 66%
    03:00 -4°C° 0 mm 2 m/s 660 mmHg 64%
    04:00 -4°C° 0 mm 2 m/s 660 mmHg 63%
    05:00 -4°C° 0 mm 2 m/s 661 mmHg 63%
    06:00 -5°C° 0 mm 2 m/s 661 mmHg 62%
    07:00 -4°C° 0 mm 2 m/s 662 mmHg 59%
    08:00 -3°C° 0 mm 2 m/s 663 mmHg 57%
    09:00 0°C° 0 mm 1 m/s 663 mmHg 54%
    10:00 +1°C° 0 mm 1 m/s 664 mmHg 52%
    11:00 +2°C° 0 mm 1 m/s 664 mmHg 50%
    12:00 +2°C° 0 mm 1 m/s 664 mmHg 47%
    13:00 +2°C° 0,1 mm 1 m/s 664 mmHg 48%
    14:00 +2°C° 0,1 mm 1 m/s 664 mmHg 49%
    15:00 +2°C° 0,1 mm 1 m/s 665 mmHg 50%
    16:00 +1°C° 0,1 mm 1 m/s 665 mmHg 53%
    17:00 0°C° 0,1 mm 1 m/s 665 mmHg 56%
    18:00 -1°C° 0,1 mm 1 m/s 666 mmHg 59%
    19:00 -1°C° 0 mm 1 m/s 666 mmHg 59%
    20:00 -4°C° 0 mm 2 m/s 666 mmHg 59%
    21:00 -4°C° 0 mm 2 m/s 666 mmHg 58%
    22:00 -5°C° 0 mm 2 m/s 666 mmHg 57%
    23:00 -5°C° 0 mm 2 m/s 667 mmHg 57%

    26 Noiembrie, Duminică

    Timp Temperatura Precipitaţii Vânt Presiune Umiditate
    00:00 -5°C° 0 mm 2 m/s 667 mmHg 56%
    01:00 -6°C° 0 mm 2 m/s 666 mmHg 54%
    02:00 -6°C° 0 mm 2 m/s 666 mmHg 53%
    03:00 -6°C° 0 mm 2 m/s 666 mmHg 52%
    04:00 -6°C° 0 mm 2 m/s 666 mmHg 50%
    05:00 -6°C° 0 mm 2 m/s 666 mmHg 49%
    06:00 -6°C° 0 mm 2 m/s 666 mmHg 48%
    07:00 -3°C° 0 mm 1 m/s 666 mmHg 46%
    08:00 -2°C° 0 mm 1 m/s 667 mmHg 44%
    09:00 -1°C° 0 mm 0 m/s 667 mmHg 41%
    10:00 +1°C° 0 mm 1 m/s 667 mmHg 40%
    11:00 +2°C° 0 mm 1 m/s 667 mmHg 39%
    12:00 +1°C° 0 mm 2 m/s 666 mmHg 38%
    13:00 +1°C° 0 mm 2 m/s 666 mmHg 40%
    14:00 +1°C° 0 mm 2 m/s 666 mmHg 42%
    15:00 +1°C° 0 mm 2 m/s 665 mmHg 45%
    16:00 +1°C° 0 mm 1 m/s 665 mmHg 47%
    17:00 -1°C° 0 mm 1 m/s 665 mmHg 50%
    18:00 -2°C° 0 mm 1 m/s 665 mmHg 53%
    19:00 -2°C° 0 mm 1 m/s 665 mmHg 52%
    20:00 -2°C° 0 mm 1 m/s 665 mmHg 51%
    21:00 -2°C° 0 mm 1 m/s 665 mmHg 50%
    22:00 -5°C° 0 mm 2 m/s 664 mmHg 49%
    23:00 -5°C° 0 mm 2 m/s 664 mmHg 48%
    Arată mai mult